Terminal Aerodrome Forecast
Issued by NWS

Home | Current Version | Previous Version | Text Only | Print | Product List | Glossary On
Versions: 1 2 3 4 5 6 7 8 9 10 11 12 13 14 15 16 17 18 19 20 21 22 23 24 25 26 27 28 29 30 31 32 33 34 35 36 37 38 39 40 41 42 43 44 45
000
FTUS42 KMFL 231131
TAFOPF
TAF
KOPF 231131Z 2312/2412 VRB05KT P6SM FEW025 SCT250
     FM231400 08009KT P6SM VCSH SCT035 SCT070
     FM240000 VRB02KT P6SM FEW025 SCT250=

USA.gov is the U.S. government's official web portal to all federal, state and local government web resources and services.